TDS 1 (40076 NORAD) Tracking and Keplerian Element Data

This shows tracking and keplerian element data for the satellite.

Feedback or suggestion? Click here.




ElementValue
Catalog40076
NameTDS 1
Epoch Orbit23610
Epoch Day323.81002121
Epoch Year2018
RAAN102.1395
Inclination98.3897
Eccentricity0.000558
Argument of Perigee193.9567
Mean Anonmoly166.149
Mean Motion14.81444709
Decay Rate-2E-07
L11 40076U 14037H 18323.81002121 -.00000020 00000-0 49257-5 0 9999
L22 40076 98.3897 102.1395 0005580 193.9567 166.1490 14.81444709236103

Live tracking and technical data element details for TDS 1 (NORAD 40076). TDS 1 can be tracked NOW for your location showing map with azimuth and elevation plus other details from your city location.

Track the satellite on the map from your city or location and see movement details for azimuth, elevation, latitude, longitude, range, height, and movement on the map or in text.







IsCatalogInMostPopularTable: catalog: 40076, numindb: 97
Update: records affected: 1



GetName: 40076 TDS 1

Hit Count: updated at: Wed, 21 Nov 2018 05:41:07 GMT